GFSSGP_850_rhum_054.txt.gz
RH
9 15 20 20 25 32 30 25 19 32 59 67 66 69 87 88 83 84 93 82 46 49 60 73 71 68 74 65 51 60 66 63 53 31 20 17 14 16 12 12 16 18 20 19 17 16 18 21 42
11 18 26 25 25 26 24 24 64 61 57 61 61 75 83 94 95 100 92 78 42 46 65 76 74 76 72 57 60 67 69 60 36 24 18 13 16 13 14 17 20 20 19 17 17 17 18 31 50
15 19 22 26 24 22 22 40 58 57 55 52 57 72 84 96 97 98 94 65 46 53 71 73 67 71 66 60 72 74 69 47 27 23 13 15 15 15 19 21 21 19 19 21 26 27 25 42 47
16 16 16 18 20 15 21 66 54 53 50 51 58 84 87 100 98 93 94 95 63 55 62 85 72 64 58 72 77 75 54 31 25 17 16 17 16 19 21 20 20 20 23 29 30 32 33 35 42
19 18 22 19 16 25 61 63 59 54 52 55 53 73 92 99 100 99 100 91 70 88 86 86 76 65 77 81 80 62 34 25 20 16 19 18 20 22 22 21 21 23 28 30 32 34 34 35 35
21 17 22 21 20 56 61 58 63 63 57 52 57 66 91 100 100 100 100 94 78 95 99 88 82 81 80 80 67 41 29 26 17 21 20 20 22 22 22 22 24 27 31 32 34 34 35 45 47
23 25 24 20 19 47 61 57 66 65 62 52 50 82 100 100 98 99 99 96 90 89 91 88 91 79 80 70 48 33 29 19 22 21 22 23 23 22 23 23 25 29 32 34 34 36 37 52 54
17 20 19 18 47 62 60 69 60 53 48 50 58 90 93 99 95 100 100 100 99 99 98 84 67 74 80 56 38 28 27 20 23 25 25 25 26 26 26 26 28 31 34 38 41 45 50 60 58
15 22 24 20 62 57 63 61 56 55 56 55 60 69 66 99 100 96 99 99 94 85 73 74 95 82 60 38 33 32 23 26 28 28 28 30 31 36 48 50 43 41 48 69 66 68 68 67 67
14 22 18 21 55 65 62 62 58 58 54 89 95 86 87 98 92 98 97 98 98 93 86 69 88 64 53 43 31 29 24 31 31 32 38 55 56 69 75 76 67 72 76 75 76 74 70 72 74
14 18 25 52 54 54 60 61 47 53 48 61 99 100 84 94 96 85 80 72 85 75 76 75 73 69 45 37 36 30 37 58 61 62 65 59 64 70 87 82 79 76 76 76 75 73 75 76 75
14 12 18 52 49 49 61 52 52 54 49 58 55 55 77 86 95 66 59 56 79 88 88 79 71 45 38 36 34 36 44 73 70 83 75 76 85 86 88 82 77 75 75 76 79 79 79 79 77
17 15 27 44 43 43 46 51 51 45 45 64 59 65 92 76 70 51 64 54 67 88 84 79 60 45 41 38 50 58 59 63 66 77 88 93 86 93 78 78 79 79 78 79 79 79 78 75 63
19 44 50 50 49 50 55 50 48 42 49 58 67 91 91 76 59 47 75 55 81 95 86 82 77 70 65 62 67 68 78 61 59 75 78 83 78 74 73 73 78 85 85 83 80 78 61 42 38
20 30 40 42 41 39 43 45 46 50 46 55 74 89 83 73 66 59 65 88 87 92 83 79 77 75 65 72 72 71 78 78 80 80 74 78 79 79 82 82 82 83 84 82 73 41 42 33 22
18 23 34 46 42 34 36 39 36 45 54 70 72 80 86 80 60 62 65 71 80 82 80 76 73 75 71 69 75 80 80 82 80 75 71 63 63 72 75 78 82 83 70 42 38 39 33 27 26
24 27 24 33 30 35 33 36 35 36 47 63 72 79 85 83 63 68 74 75 72 58 58 70 66 67 77 76 78 82 81 77 70 61 57 58 65 68 69 63 49 40 42 43 41 38 30 34 34
29 25 24 26 39 37 42 36 31 31 42 55 65 69 56 60 56 65 65 59 55 53 34 43 59 73 85 77 70 70 75 64 56 60 61 57 50 41 36 37 40 45 46 46 47 39 40 40 41
26 27 27 23 25 39 37 33 31 36 42 42 46 54 47 52 53 56 54 53 56 60 42 38 43 60 67 78 71 66 60 59 68 66 66 51 41 38 37 42 46 50 54 56 51 38 31 23 29
35 33 29 27 21 33 33 34 33 36 37 33 34 39 41 45 49 53 52 55 59 62 61 55 58 60 70 69 61 60 64 76 80 74 58 46 43 43 44 47 52 57 58 49 39 37 33 35 40
36 40 33 31 25 21 24 28 24 24 33 34 30 29 32 35 45 51 52 53 60 66 65 66 68 69 70 68 67 74 84 81 74 65 51 44 51 53 59 60 59 57 53 48 46 48 53 60 52
40 33 33 32 25 25 25 41 35 25 32 38 32 29 27 29 38 45 53 56 59 62 68 70 73 79 81 83 82 82 69 66 67 60 47 56 60 65 65 61 60 56 55 53 55 61 65 65 51
38 33 31 32 35 33 33 35 34 30 30 33 37 29 26 28 32 39 44 47 58 62 69 76 87 92 92 88 89 74 68 64 56 53 61 66 70 69 64 66 64 58 58 60 64 66 66 47 29
27 29 43 48 48 50 36 37 38 35 28 23 30 31 33 38 36 46 46 50 59 64 71 85 93 92 98 91 87 82 56 51 60 64 66 70 72 67 68 72 70 61 62 65 66 64 43 20 22
30 40 55 59 71 59 39 44 34 31 29 27 28 34 34 38 44 51 54 56 58 68 82 70 87 89 88 96 82 67 63 61 62 64 67 75 74 73 75 69 61 73 65 64 56 43 26 30 38
41 37 59 46 76 61 38 46 40 33 29 24 22 24 34 41 44 51 54 54 60 66 74 78 82 76 88 78 67 69 68 68 70 68 72 77 74 63 63 72 77 76 70 66 39 25 31 36 48
38 46 39 53 63 81 48 29 33 32 38 40 40 33 36 47 51 49 53 60 68 71 69 75 74 79 86 64 63 66 68 69 68 70 66 63 75 79 77 73 74 73 66 35 24 22 27 42 60
29 33 47 60 40 43 40 37 51 36 35 42 48 41 48 56 58 57 62 62 66 64 71 78 69 70 70 63 62 64 69 75 75 76 78 74 80 76 78 62 76 53 36 25 20 26 42 61 72
32 32 32 41 56 56 68 44 30 40 38 47 49 37 46 55 55 55 56 61 63 66 66 64 62 61 61 62 64 70 74 75 70 70 81 86 88 84 74 48 50 48 39 28 29 39 59 68 64
41 38 40 63 37 58 74 47 28 34 38 33 37 45 44 43 45 47 48 50 59 61 63 60 58 58 60 62 68 74 75 74 79 81 87 91 86 81 51 52 54 44 41 42 42 59 72 77 72

GFSSGP_850_rhum_057.txt.gz
RH
12 16 18 20 28 34 33 27 21 20 58 74 71 76 85 98 80 73 93 69 60 71 99 81 71 65 64 55 42 48 59 56 40 22 18 13 14 11 13 17 19 18 17 20 27 41 52 48 49
14 21 25 23 26 28 26 21 63 59 67 69 70 76 85 92 98 98 92 78 63 88 93 84 75 70 68 50 47 55 63 51 25 18 13 14 12 15 18 19 18 17 18 20 33 49 51 47 45
19 18 24 30 27 23 21 32 59 59 62 64 67 86 88 99 100 98 98 76 73 96 92 87 80 76 67 56 66 67 63 34 23 12 14 14 16 18 19 19 19 22 26 27 43 49 51 52 49
18 13 16 21 20 17 21 71 71 59 54 59 68 87 94 98 99 99 98 93 100 99 95 92 85 78 56 64 70 67 47 29 18 14 15 16 19 20 20 20 23 28 30 32 36 45 47 51 54
19 19 26 20 16 24 63 64 61 62 58 60 61 85 95 100 95 97 78 88 99 94 98 94 91 77 59 74 78 56 32 24 14 16 16 19 20 20 20 22 27 30 33 34 34 33 35 37 48
22 17 23 22 19 49 63 60 62 58 56 62 65 80 98 100 97 99 83 82 79 89 96 97 93 82 76 84 68 36 23 18 18 18 19 22 22 21 22 25 30 32 33 33 34 34 36 46 45
24 27 25 21 21 31 63 61 64 64 60 54 57 92 99 100 100 100 100 88 90 87 99 97 91 95 90 77 41 26 23 17 21 20 24 25 23 22 24 29 32 34 34 35 35 38 43 49 54
18 22 20 21 24 43 64 66 64 59 54 57 69 95 97 99 94 89 97 89 99 100 98 99 98 90 70 60 40 27 21 22 23 25 27 25 25 26 28 31 34 36 35 39 43 48 53 54 58
17 23 25 21 45 50 65 56 56 52 56 65 72 73 82 98 93 97 99 100 100 100 91 89 79 64 69 60 35 28 21 26 28 30 30 31 31 32 33 33 36 38 44 51 57 58 58 60 63
17 24 19 17 45 65 63 59 56 56 64 96 100 100 99 99 99 98 98 100 97 98 93 74 67 57 77 52 37 28 28 32 31 33 45 51 65 68 63 54 53 52 60 61 60 64 68 69 70
16 20 18 42 49 57 61 64 57 56 56 92 98 100 100 100 96 99 100 97 84 87 90 66 68 78 87 50 36 27 35 37 40 65 68 69 78 80 78 69 64 67 67 66 68 71 73 74 76
16 15 21 47 51 56 64 54 56 54 51 62 61 92 94 90 84 71 98 91 97 72 59 57 78 77 68 47 35 37 41 56 71 80 78 72 72 78 75 74 70 70 72 76 78 80 79 80 79
18 28 24 43 51 48 48 50 52 63 76 70 76 69 98 86 60 67 64 76 76 64 69 75 74 80 55 40 39 48 74 85 79 76 72 64 70 72 76 76 78 75 80 82 81 81 80 75 54
46 52 55 50 50 54 47 49 43 51 78 99 73 95 82 64 58 64 63 77 82 83 81 73 70 67 43 41 45 52 80 75 79 84 76 72 78 75 80 76 75 81 82 82 81 80 69 41 34
38 48 45 44 48 48 49 44 52 55 77 88 83 77 79 63 51 47 49 58 80 83 77 76 59 44 41 57 64 68 65 64 61 64 71 84 77 76 78 80 82 88 88 85 81 54 40 30 19
26 35 50 43 45 38 41 43 47 60 82 100 96 90 80 65 55 42 47 49 68 82 86 83 73 64 56 65 78 70 79 70 77 83 84 80 82 84 88 86 88 90 89 73 42 39 32 21 16
27 32 36 33 41 39 40 34 35 53 71 95 93 89 86 73 63 52 48 50 63 82 88 84 80 72 71 78 76 80 81 84 89 87 78 68 73 84 84 86 88 72 43 39 40 37 28 21 21
32 29 24 28 31 37 41 39 36 49 64 80 84 83 83 75 69 58 60 63 73 77 80 81 74 71 73 74 81 90 94 95 86 74 61 61 70 72 72 59 40 40 44 46 45 36 29 29 35
35 32 34 29 23 34 38 39 33 41 49 64 85 88 86 74 55 53 61 68 78 83 87 82 77 73 72 83 86 85 84 84 71 62 64 64 61 52 40 40 44 47 50 50 44 40 40 43 45
35 39 40 31 26 38 41 41 33 46 50 53 67 79 76 71 69 54 59 72 70 76 76 64 58 57 64 75 78 79 77 74 68 73 72 65 52 42 42 45 50 54 54 52 50 45 46 47 54
33 40 41 38 30 32 30 32 30 36 44 46 54 55 63 49 55 57 66 61 63 68 59 44 32 38 61 80 87 83 73 71 80 82 76 63 47 42 46 56 60 58 56 55 54 52 55 60 63
39 35 37 38 29 32 26 38 36 36 45 41 42 54 55 44 45 52 60 55 55 57 57 59 49 55 70 83 89 79 63 65 71 76 68 57 44 50 58 67 64 63 58 58 58 61 66 67 54
34 32 33 35 36 34 34 36 31 31 41 44 39 38 42 40 44 48 46 42 52 57 58 64 65 69 73 79 84 75 69 74 74 66 65 51 60 70 72 69 70 67 63 64 65 65 68 56 36
30 36 42 47 48 50 37 37 39 37 30 33 35 37 34 36 42 42 43 49 54 55 62 67 68 76 83 84 87 89 81 68 70 69 59 64 74 77 74 72 70 70 70 68 67 64 56 40 22
34 41 53 55 67 56 41 44 40 28 30 28 32 36 34 30 36 43 54 58 56 56 59 68 73 79 81 92 96 91 81 67 58 54 58 68 76 80 76 74 75 84 87 85 75 72 47 26 22
40 38 57 42 68 60 43 50 39 32 36 31 25 26 31 32 34 40 43 46 53 54 58 70 69 83 79 81 96 92 86 67 60 63 67 72 80 82 80 83 90 86 91 72 63 41 27 24 31
36 47 37 60 68 82 53 37 35 34 36 41 34 38 35 35 35 36 38 41 48 52 58 57 58 62 73 83 89 97 77 70 69 70 75 84 89 87 88 95 93 95 84 65 43 34 31 35 46
34 37 48 61 46 48 41 41 45 38 34 39 54 45 42 40 43 44 45 48 53 52 61 59 63 70 73 86 84 75 67 74 72 76 74 84 85 92 92 96 96 94 70 48 39 35 30 41 48
38 39 38 48 55 57 66 50 32 39 35 38 38 43 46 46 44 44 43 47 51 57 66 62 64 71 78 80 73 66 68 70 73 76 77 75 83 87 92 93 90 73 54 46 44 32 34 42 58
33 36 41 64 43 62 75 49 26 34 39 36 35 33 34 41 42 44 46 49 55 60 60 62 64 75 76 81 70 68 70 73 72 75 76 86 89 90 86 71 63 54 47 51 40 39 45 66 77

GFSSGP_850_rhum_060.txt.gz
RH
11 13 18 20 28 34 32 27 24 37 40 78 80 75 75 96 87 78 100 83 60 87 99 80 66 63 58 45 41 49 52 46 32 22 20 15 12 11 16 19 19 20 22 26 43 49 52 64 61
11 22 25 22 28 30 26 22 38 71 70 65 70 80 78 89 93 98 98 80 70 94 99 79 70 67 59 45 51 56 55 36 18 17 14 13 13 18 19 17 18 20 28 42 46 46 48 48 49
16 18 24 29 30 23 21 18 50 61 76 68 77 88 94 98 99 98 92 82 87 99 100 81 74 71 57 51 62 60 48 22 16 14 14 14 18 19 18 20 22 28 39 46 48 45 42 42 49
15 18 17 26 22 18 17 30 69 66 62 63 75 91 94 89 98 93 93 91 86 99 99 88 77 75 56 55 60 56 32 19 14 16 15 19 21 19 22 27 29 33 39 46 47 48 48 49 53
19 19 28 23 19 15 58 62 66 61 65 64 64 94 91 99 97 95 92 99 86 99 96 92 86 82 62 66 67 44 27 17 15 15 20 23 21 21 28 30 33 36 36 38 38 39 41 51 54
22 18 26 24 20 20 65 60 67 68 67 71 81 90 99 99 99 100 95 98 93 97 95 100 97 86 82 90 64 31 26 14 19 18 25 23 22 25 31 34 34 35 37 37 40 45 46 48 50
26 28 26 22 21 25 56 63 64 68 63 64 72 95 99 100 99 89 87 99 99 86 98 100 99 84 96 69 40 27 20 19 18 24 27 24 24 30 34 34 34 35 34 37 47 53 54 54 56
20 26 22 22 21 31 60 68 67 56 60 63 75 93 98 100 100 98 96 95 93 92 100 100 100 100 76 63 53 33 26 18 21 28 26 26 28 34 36 37 35 34 38 40 45 53 58 60 63
18 26 28 22 24 30 64 59 56 57 68 93 89 80 86 92 92 99 98 100 100 100 100 99 97 82 68 60 47 32 21 24 28 31 29 28 31 34 37 35 36 42 43 50 57 61 62 67 70
20 27 22 18 27 53 66 56 54 58 82 95 98 98 98 84 88 100 100 100 100 94 99 98 83 66 47 59 41 28 24 28 31 31 33 33 34 36 37 38 42 41 55 62 62 65 67 69 70
19 24 19 21 38 49 64 60 55 58 62 84 98 100 94 99 100 100 100 100 96 86 89 84 75 52 47 73 44 32 31 34 37 36 36 52 55 56 54 53 55 61 64 66 69 69 72 76 76
19 17 17 40 46 59 64 58 60 58 48 59 57 86 94 84 90 100 100 98 82 84 72 79 54 52 68 76 45 35 38 40 40 57 66 74 76 76 70 67 68 68 71 71 72 78 80 80 79
18 35 43 44 55 55 50 50 53 87 76 66 82 94 86 83 98 100 100 87 89 72 65 69 65 74 71 59 42 38 39 46 70 76 80 76 74 77 79 75 75 73 76 78 82 81 75 74 60
50 53 57 54 53 54 49 51 47 91 87 81 100 89 71 75 70 83 98 96 99 71 65 65 77 85 68 53 41 45 44 72 80 85 80 76 76 77 77 80 78 76 82 84 80 79 73 50 31
39 46 43 47 55 50 46 44 51 82 86 76 100 91 74 78 74 62 54 72 88 74 66 71 78 77 71 47 42 52 67 80 87 86 85 75 76 79 79 79 77 82 84 84 82 74 43 32 20
35 34 47 40 44 48 39 46 49 82 81 89 90 99 82 75 72 60 61 64 56 60 66 78 81 83 64 48 45 54 76 81 81 77 75 76 77 77 81 83 87 88 89 87 70 41 36 26 17
31 36 39 30 44 44 42 37 55 90 85 94 90 97 78 81 72 64 65 53 73 72 75 75 68 54 47 49 64 69 70 82 84 77 79 83 81 81 88 92 90 91 88 50 43 43 33 25 19
34 30 27 31 33 45 47 44 46 81 84 85 91 94 90 78 59 58 55 61 61 74 77 82 80 66 61 55 80 87 90 91 83 80 90 80 69 78 85 86 91 69 44 46 49 42 36 32 37
34 34 36 30 28 30 34 43 42 57 80 97 88 92 91 73 59 54 54 58 57 68 81 84 84 80 76 74 80 85 80 80 86 94 81 64 63 70 78 76 48 45 50 52 50 46 46 49 53
34 37 38 35 29 33 39 41 37 51 62 78 82 81 70 62 65 66 62 62 50 57 71 74 82 80 73 69 69 75 77 85 93 86 66 65 67 72 63 48 49 54 57 55 54 56 56 57 59
34 36 38 39 35 35 34 32 36 36 49 57 68 54 60 60 52 60 56 56 54 56 57 62 67 70 75 66 71 77 86 93 87 75 67 74 71 62 52 56 59 63 61 58 60 61 61 61 62
40 34 35 40 36 38 26 35 36 37 48 50 56 68 61 59 58 46 42 47 54 55 62 68 76 79 76 70 68 74 79 82 78 71 74 79 65 58 61 63 67 67 65 62 64 62 63 64 61
38 36 39 37 40 37 38 40 32 38 49 49 48 54 56 50 54 41 37 40 47 53 58 64 70 72 62 64 68 75 87 90 74 78 85 76 62 62 69 69 70 70 68 67 70 72 70 70 68
30 38 41 48 49 52 39 41 41 41 39 40 44 43 44 47 50 50 39 42 47 59 58 60 64 65 59 60 66 80 93 88 75 84 86 72 65 69 77 73 73 72 70 71 88 86 76 60 38
33 41 54 54 66 54 42 47 44 30 29 33 41 39 38 39 46 51 42 40 45 50 50 56 62 65 69 69 81 83 99 86 90 82 74 70 60 63 74 76 74 72 71 91 92 89 74 36 22
41 38 57 40 63 56 45 48 35 30 33 36 32 26 34 37 39 44 38 37 42 44 46 50 58 61 69 81 90 84 100 100 92 67 65 61 60 71 81 79 77 76 86 93 98 97 42 26 28
41 44 38 62 70 81 52 40 27 34 34 41 39 40 30 35 35 32 34 35 39 41 42 46 52 59 64 81 73 86 100 92 87 64 61 67 68 71 80 81 80 85 92 95 93 52 41 37 32
32 40 47 59 50 53 45 41 40 31 34 40 47 38 46 39 37 34 32 32 36 38 43 52 54 56 70 76 82 94 88 83 83 70 67 71 77 86 89 89 90 96 91 79 65 50 47 38 42
43 44 45 50 56 55 66 49 37 28 34 32 36 39 34 41 40 37 35 34 35 40 47 50 56 63 71 78 76 75 82 85 77 72 85 81 88 91 92 95 90 94 78 52 56 55 46 44 54
37 44 45 65 47 65 76 56 28 29 33 35 31 33 35 35 35 38 40 40 40 42 48 53 59 66 64 68 68 72 77 77 70 74 88 88 93 95 94 92 87 86 56 59 60 54 53 49 58

GFSSGP_850_rhum_066.txt.gz
RH
14 10 17 20 14 11 11 11 10 11 30 30 34 35 39 59 44 49 96 96 98 99 98 70 64 71 75 74 73 74 75 50 48 49 43 30 14 9 10 14 18 30 44 50 51 45 40 37 39
13 17 25 16 13 12 10 10 14 20 31 58 60 55 42 46 80 92 97 99 97 98 94 95 60 60 75 78 75 58 48 50 47 36 24 13 9 12 16 18 30 35 41 47 47 39 38 38 43
14 22 16 13 12 12 11 12 16 27 48 52 51 69 61 65 91 92 94 99 89 99 92 94 55 51 51 47 45 48 50 41 28 21 13 10 14 17 18 21 29 34 37 43 39 37 41 44 48
20 15 15 12 13 10 12 13 23 37 47 51 55 48 86 98 96 93 99 100 100 100 97 66 57 51 44 46 53 52 38 22 18 13 11 17 18 17 19 25 34 40 41 40 39 42 49 52 53
17 13 12 12 11 11 12 25 40 44 42 46 50 55 72 87 80 91 96 93 96 96 98 63 60 55 54 60 56 40 22 17 13 12 19 18 19 21 24 34 39 40 41 42 44 49 53 55 52
14 14 13 12 11 14 13 36 40 48 47 50 49 56 76 81 81 99 94 92 93 94 95 83 77 68 63 63 48 27 19 14 13 20 20 18 20 26 34 40 42 43 46 45 48 51 50 52 55
13 14 13 12 15 15 21 50 47 45 44 44 54 50 76 83 88 98 98 96 98 91 97 93 97 98 99 72 44 27 19 14 20 21 19 23 28 33 40 42 42 41 41 44 47 50 54 59 63
13 12 13 12 14 16 28 42 49 45 46 68 64 46 64 97 95 99 99 99 98 100 99 98 100 100 94 80 54 30 18 22 24 21 24 30 30 35 38 38 39 43 49 51 53 57 62 66 66
16 14 14 13 14 14 34 34 51 54 51 61 71 67 81 92 100 100 100 99 99 100 99 100 100 98 87 70 54 31 27 30 30 23 33 33 36 38 42 43 49 51 55 58 62 64 68 71 72
14 14 12 11 11 13 27 32 39 46 50 50 69 92 98 89 99 98 100 100 100 100 100 100 100 88 81 66 53 53 55 43 32 32 36 44 41 73 45 44 49 55 61 65 68 71 72 73 72
15 15 13 13 13 14 24 34 40 34 33 39 55 91 94 99 99 99 100 100 100 100 100 100 96 84 72 67 64 51 58 60 58 30 37 42 41 43 45 48 58 68 70 72 75 76 76 75 68
19 16 16 16 29 27 25 40 34 38 40 58 65 88 98 99 99 100 100 100 100 100 100 100 98 87 77 70 71 70 46 47 31 28 28 34 38 40 55 77 69 71 75 76 76 78 77 71 68
20 21 32 33 38 38 43 34 33 43 67 68 80 94 99 98 99 100 100 100 100 100 95 96 94 89 83 75 60 63 81 48 34 29 32 34 35 37 47 68 74 75 79 80 80 80 72 73 68
30 32 31 33 34 35 33 33 34 54 74 74 82 89 99 99 100 100 100 100 100 96 100 96 88 74 67 67 84 53 35 44 32 32 34 34 39 50 58 64 70 77 81 82 82 76 74 64 46
31 30 31 32 32 27 33 28 28 43 71 71 75 97 83 89 99 92 96 97 99 99 99 91 82 70 79 83 59 48 59 41 35 37 43 64 71 75 77 76 76 82 81 82 82 77 74 56 33
23 22 20 24 30 32 36 27 25 51 63 70 65 72 76 74 92 87 96 95 95 77 82 87 91 82 78 83 47 42 44 47 47 54 66 73 76 74 72 73 84 85 83 82 81 77 64 39 44
19 19 21 21 24 24 28 25 30 54 56 64 64 64 71 75 76 81 87 81 81 80 78 85 97 83 69 69 56 45 45 46 66 63 79 80 78 68 70 74 81 85 84 83 84 66 44 48 50
20 20 20 21 22 26 24 23 21 46 53 52 61 61 68 72 82 82 83 78 80 85 85 90 96 95 83 72 53 46 50 76 87 78 83 78 71 68 74 79 87 88 87 85 71 44 46 56 53
17 20 21 18 19 22 21 22 19 38 50 49 57 60 66 73 62 75 80 79 70 76 82 89 94 98 91 85 81 80 84 93 92 82 82 69 68 73 77 84 90 91 87 82 47 49 49 61 56
22 23 22 20 20 23 21 20 21 34 47 40 46 54 62 61 68 66 69 76 82 83 88 90 93 98 97 92 84 76 74 85 95 63 73 75 74 76 83 88 93 92 88 56 49 52 60 70 59
23 25 24 23 21 22 24 21 20 23 38 42 43 44 50 53 59 66 67 71 76 76 83 87 92 92 96 94 81 85 91 95 94 75 76 73 76 81 76 92 94 92 66 50 54 55 58 71 73
26 21 23 24 27 25 23 20 17 20 25 34 41 46 45 52 54 56 65 69 74 75 76 86 91 93 96 85 90 84 82 83 93 82 73 72 84 75 72 88 88 68 54 57 56 59 68 64 70
23 26 26 27 28 27 25 21 17 19 18 19 26 36 44 46 51 49 54 62 70 75 79 80 85 93 98 95 93 88 89 86 93 84 76 74 82 74 79 83 76 58 54 57 64 64 63 66 72
26 29 29 29 29 32 25 25 17 15 16 17 18 21 32 44 45 48 50 52 58 74 82 78 79 85 90 80 77 87 92 99 89 82 79 84 89 83 81 80 70 59 58 60 64 66 66 83 82
26 30 34 41 36 32 28 25 18 15 18 18 20 25 26 29 44 47 47 55 53 63 75 55 55 75 80 71 75 84 87 94 81 71 88 88 93 83 84 83 73 64 63 65 68 69 70 92 89
27 26 32 34 34 27 29 24 16 16 17 20 27 30 30 32 33 41 48 49 57 61 65 42 44 51 57 57 62 65 63 65 70 78 86 87 96 85 85 87 76 69 68 69 71 78 81 91 88
32 32 25 37 48 41 23 19 15 15 18 22 18 25 29 31 34 38 42 50 57 64 70 36 42 74 82 52 53 55 68 58 60 85 90 92 98 97 97 92 76 75 74 75 78 88 95 87 72
27 24 34 33 42 37 24 24 18 16 16 17 16 18 27 38 36 35 38 45 54 62 70 80 75 74 78 70 51 54 65 69 80 90 92 99 100 100 100 89 80 77 84 91 94 100 89 83 88
33 31 29 28 31 35 34 25 16 15 14 17 16 21 23 29 38 40 40 42 50 60 68 76 80 74 79 85 69 61 63 70 83 95 99 100 100 100 100 100 93 90 95 100 99 98 98 78 80
23 24 27 33 33 36 41 30 15 15 19 18 19 25 25 32 38 45 47 51 56 62 66 70 78 77 80 91 98 70 77 80 80 76 86 100 100 100 97 95 93 99 100 99 98 100 87 84 79

GFSSGP_850_rhum_069.txt.gz
RH
18 18 18 15 14 11 10 8 7 8 10 40 17 15 14 20 67 86 82 82 82 88 84 74 93 81 78 78 74 68 70 71 66 49 50 37 18 11 9 12 22 35 44 48 47 39 35 39 42
27 18 17 14 14 11 10 9 9 10 15 50 39 33 20 20 73 71 89 88 87 93 93 95 98 84 84 82 76 74 76 73 50 51 40 22 11 9 14 19 34 42 48 47 40 36 40 44 44
23 17 16 13 12 11 11 10 9 11 24 27 34 40 28 31 66 72 77 92 98 95 91 94 98 92 89 83 79 80 78 52 52 42 23 11 10 15 21 31 40 48 51 45 39 39 44 47 43
17 14 12 11 10 9 9 11 16 18 27 31 34 40 63 82 67 68 84 94 98 93 89 75 80 96 85 83 83 81 52 52 43 24 12 12 17 20 30 35 42 50 51 41 43 46 50 48 46
15 12 11 11 9 8 12 15 24 26 26 30 34 36 58 44 60 80 85 92 89 97 94 73 64 90 90 88 80 56 56 43 25 13 11 18 20 22 33 37 46 51 42 42 46 51 53 49 51
13 11 12 11 11 10 15 20 24 28 31 34 33 36 53 90 92 87 92 96 89 98 98 82 68 73 84 68 64 63 43 25 15 12 17 20 20 28 35 39 38 39 42 47 49 52 50 53 55
12 11 12 10 9 11 17 27 26 26 28 30 34 32 51 89 97 90 95 94 93 87 78 88 87 93 85 93 74 43 27 17 16 19 19 19 22 33 36 39 40 41 44 47 49 50 54 60 59
11 10 11 9 10 14 17 17 33 32 30 46 44 32 40 94 95 91 96 95 99 87 99 99 89 99 99 95 47 28 19 17 20 20 20 23 31 38 40 39 38 43 44 46 51 56 62 66 66
11 12 12 12 10 15 15 17 28 41 36 41 49 50 70 98 84 83 98 98 93 95 100 98 98 100 91 78 60 29 27 26 25 26 32 41 43 44 40 40 42 44 48 52 57 63 70 71 66
11 12 12 9 9 10 12 17 22 28 28 29 45 68 95 99 99 98 100 99 100 100 100 100 100 96 86 80 70 62 56 44 36 41 44 51 42 73 44 46 46 48 55 60 64 71 72 66 63
11 12 9 10 11 13 12 16 25 24 22 35 37 68 86 99 96 100 100 100 100 100 100 100 100 86 93 88 71 68 72 52 48 48 63 42 77 74 45 44 55 60 67 67 72 72 70 70 66
13 12 12 12 14 20 16 26 25 25 31 40 52 68 78 98 99 100 98 100 99 100 100 100 99 100 96 84 66 51 44 43 52 46 74 89 80 80 44 53 56 67 76 73 78 78 76 68 66
14 15 17 19 22 21 23 23 26 24 39 51 58 71 78 95 99 99 100 100 100 100 99 100 98 98 94 71 54 60 72 79 50 52 83 86 86 89 83 88 86 81 80 82 82 78 71 69 59
19 20 19 20 20 21 23 20 25 37 42 52 53 67 74 99 99 98 100 100 100 99 100 100 91 83 74 74 72 67 59 48 43 48 71 83 83 81 86 90 85 82 84 82 81 77 70 61 58
18 19 27 34 19 18 20 24 24 36 42 49 53 62 59 81 100 100 100 100 100 96 98 90 96 94 88 77 69 62 75 73 78 78 87 77 77 76 91 94 89 85 82 81 78 77 67 58 45
16 16 18 43 26 20 19 51 66 36 44 42 50 52 51 66 80 90 94 95 100 100 98 94 84 83 69 76 70 77 72 80 73 70 85 88 88 89 90 87 76 77 85 81 80 72 65 54 48
15 17 22 20 16 16 19 25 31 30 36 40 44 49 47 58 61 84 84 85 82 97 74 70 63 70 87 90 83 70 70 72 67 76 88 65 66 75 74 78 85 83 86 81 78 71 61 52 49
18 17 15 16 19 18 18 21 20 25 32 37 37 41 44 52 55 63 67 69 68 81 82 80 92 88 80 79 84 73 75 77 78 86 91 85 88 74 77 87 94 80 85 84 79 71 58 56 55
15 15 17 16 15 17 20 20 16 25 31 37 44 43 49 52 58 67 64 68 64 69 73 78 89 96 94 90 81 69 66 66 71 86 87 87 84 78 72 97 84 86 86 85 80 74 55 64 65
16 18 19 17 15 17 17 16 13 22 30 31 36 46 46 52 58 66 67 65 68 73 70 69 69 79 86 76 71 63 63 63 69 84 81 98 78 66 68 93 84 84 87 87 83 68 68 69 72
20 21 21 20 17 15 15 16 15 18 26 27 28 35 42 53 43 53 62 66 64 64 72 69 68 67 74 70 69 68 70 69 72 85 98 95 73 81 78 90 89 90 89 88 87 62 72 69 76
22 16 18 20 21 40 19 28 19 14 19 25 25 30 35 45 43 48 50 56 64 64 67 72 69 66 71 74 72 72 65 66 68 83 95 99 92 80 76 85 86 90 86 87 80 74 76 74 73
20 19 20 21 23 21 18 16 18 11 13 17 22 27 28 34 36 40 49 49 54 60 65 72 70 68 70 82 76 74 74 69 72 80 93 100 80 78 87 84 98 96 88 80 78 78 83 76 70
17 21 22 22 24 30 21 19 21 17 12 12 14 20 25 28 32 34 36 44 49 59 68 69 71 70 71 79 86 81 81 75 67 81 93 98 99 72 86 85 90 100 92 80 86 86 84 72 68
22 26 34 37 34 33 20 21 16 13 13 13 14 17 19 24 30 34 32 35 41 52 65 70 70 66 72 79 84 89 86 84 79 92 88 97 86 70 77 88 92 94 88 86 92 90 83 68 74
22 23 34 42 39 29 19 18 15 11 11 12 14 17 22 23 23 31 34 35 37 42 55 69 68 70 67 81 88 94 96 92 92 96 98 84 86 86 86 92 93 91 93 92 97 94 80 76 85
21 26 19 29 28 35 22 16 13 10 11 14 12 14 18 24 24 24 30 35 39 44 47 62 70 68 68 74 90 97 97 99 97 90 98 99 97 99 100 99 94 99 98 99 92 82 73 89 95
21 20 30 27 37 42 22 18 16 14 14 12 12 13 17 27 26 27 27 31 38 42 49 59 70 63 66 75 93 97 100 99 91 76 70 85 97 100 100 100 99 98 99 98 90 86 95 99 96
23 27 24 21 26 37 33 21 14 13 12 13 13 14 14 18 27 28 29 31 36 43 50 60 70 68 62 69 83 97 100 100 93 86 97 97 100 100 100 98 100 100 99 97 97 100 100 99 97
17 22 22 32 29 28 31 28 13 13 12 14 14 15 16 18 21 29 34 34 36 43 49 57 67 72 67 68 77 93 100 100 100 100 95 99 99 100 98 99 100 98 98 99 100 98 98 97 97

GFSSGP_850_rhum_072.txt.gz
RH
16 18 19 20 16 14 15 11 7 8 10 32 20 25 26 20 43 59 63 52 61 94 73 86 71 70 73 72 64 59 62 62 60 50 47 34 15 14 11 24 82 58 49 42 35 36 37 35 35
18 32 19 14 18 19 13 11 11 8 27 25 21 17 19 33 52 41 38 56 74 94 76 80 96 79 79 76 66 63 67 65 57 49 42 22 13 10 16 64 82 58 43 36 36 40 37 38 36
17 21 16 16 18 16 14 12 12 11 32 34 29 26 39 55 63 65 34 37 85 99 84 84 97 99 90 80 69 68 72 66 52 48 29 13 10 16 30 45 77 56 38 37 41 42 40 42 38
22 16 13 15 11 8 10 12 26 22 35 31 48 65 42 72 72 80 85 69 88 91 89 87 99 96 90 81 72 73 76 57 53 36 16 10 16 28 41 47 64 53 36 39 44 45 44 46 39
18 13 14 13 11 11 8 13 42 46 57 51 62 81 65 50 79 77 74 82 77 85 88 81 98 99 96 89 77 82 68 56 45 22 10 14 22 35 42 49 56 41 38 42 46 46 48 48 40
15 12 14 13 13 11 11 16 18 18 25 62 81 78 73 48 85 79 88 87 91 94 96 97 94 94 99 100 86 79 60 52 28 14 13 19 30 34 40 43 39 38 41 44 46 48 53 48 42
13 13 13 11 9 12 24 21 25 20 36 73 41 61 78 79 84 87 96 86 68 81 62 86 93 100 100 100 90 67 58 33 17 14 20 22 30 35 38 36 37 40 43 46 47 53 56 50 41
11 10 11 11 16 11 25 25 28 34 39 31 36 58 88 71 88 99 100 94 80 84 67 62 80 87 100 100 89 61 37 22 14 20 24 34 40 39 42 41 40 44 44 48 52 58 61 59 46
9 12 14 17 14 13 12 13 26 22 33 30 38 70 94 93 89 98 99 100 91 95 99 94 92 100 84 87 68 63 32 25 32 35 37 47 50 46 47 43 43 45 46 52 57 62 66 63 53
10 12 14 13 9 10 10 10 33 41 52 62 55 80 99 99 98 100 98 99 99 98 100 99 96 99 94 75 79 50 54 41 46 52 56 59 52 45 42 40 46 45 52 56 61 68 65 67 63
11 13 10 9 10 11 12 12 23 26 49 58 54 68 88 97 96 99 100 98 99 100 100 97 92 100 88 88 78 51 50 46 47 55 52 55 50 40 37 46 52 54 58 60 67 68 69 71 64
12 10 10 12 12 13 12 14 20 19 38 46 55 72 86 98 94 99 100 99 98 99 100 100 100 98 100 84 76 77 69 69 66 68 67 72 60 47 47 52 57 58 62 67 71 69 75 70 66
12 12 13 12 14 14 13 16 16 19 35 46 57 61 80 98 98 99 99 100 100 100 100 100 99 100 99 100 98 99 88 69 64 59 55 52 76 45 58 56 53 64 70 71 74 76 75 68 58
12 16 15 23 26 22 19 15 26 37 36 44 49 58 86 99 87 99 100 100 100 99 99 100 99 100 99 94 98 82 72 58 46 44 57 83 70 80 80 72 71 77 79 79 80 77 74 62 57
14 16 17 36 26 23 24 19 50 54 52 43 49 58 76 92 97 100 100 99 99 99 100 99 98 97 94 91 86 79 60 57 54 62 88 70 83 86 91 85 85 82 82 82 80 76 69 65 50
17 14 20 28 31 28 26 28 62 51 46 56 47 60 66 82 99 100 99 95 95 92 90 94 89 87 81 76 73 70 74 74 74 61 37 58 87 82 90 86 85 83 83 80 78 76 73 60 50
15 20 18 24 27 22 18 20 44 61 63 50 47 59 52 76 98 96 99 99 90 88 93 90 90 83 74 69 67 66 61 58 76 71 75 65 76 87 86 81 75 80 81 79 80 78 70 60 50
23 19 20 17 18 18 18 18 26 40 62 32 47 52 53 56 74 90 93 95 90 87 79 66 63 61 61 58 59 66 75 71 71 74 78 80 69 72 84 76 82 84 84 83 80 76 69 55 52
15 16 15 22 17 17 16 20 23 21 22 29 34 35 40 46 62 69 73 86 86 71 59 59 66 76 86 88 89 87 76 70 73 70 71 73 71 88 65 81 98 83 85 82 82 74 70 58 57
14 17 16 16 15 16 15 21 16 18 25 29 36 36 42 45 54 61 64 71 66 63 72 79 79 90 84 77 77 72 64 63 69 76 85 77 82 84 75 82 92 74 85 85 84 81 73 60 62
17 19 19 21 16 17 20 21 16 16 22 25 32 39 48 47 55 63 65 65 70 73 75 76 84 80 68 73 80 70 65 64 66 74 81 71 82 100 80 71 94 81 85 87 85 83 77 66 72
22 16 17 17 20 27 25 35 20 16 19 23 28 41 38 42 55 60 65 68 67 66 69 75 71 78 73 74 72 67 65 64 66 71 76 73 78 100 99 79 90 94 85 89 84 78 79 70 73
20 16 20 20 22 23 29 34 19 16 19 21 22 32 39 43 42 57 58 66 67 67 70 65 64 64 65 62 72 66 66 65 63 66 77 79 76 99 100 98 97 95 82 86 87 81 77 74 74
15 18 20 21 24 36 23 23 24 25 16 15 18 23 30 44 42 42 50 56 65 65 64 69 69 67 63 70 62 74 71 68 68 73 75 74 76 72 78 82 92 88 88 90 93 86 80 78 80
19 24 38 46 43 42 30 24 18 26 16 12 14 19 24 30 39 42 44 48 51 56 61 65 69 67 66 71 73 67 79 72 70 71 75 80 78 85 69 66 96 92 91 93 97 88 89 83 82
21 24 42 79 56 38 31 24 12 12 11 12 12 14 18 21 29 32 33 45 47 50 58 62 69 68 67 68 75 77 69 84 79 70 80 74 82 79 86 82 85 100 97 100 98 99 93 90 82
23 28 20 34 39 50 29 20 12 11 11 11 12 13 16 20 21 26 32 32 40 45 51 58 65 69 67 69 70 78 85 82 85 87 86 77 90 88 98 93 95 100 100 100 100 95 95 98 82
18 18 30 28 47 47 24 22 34 18 14 13 12 13 17 21 23 24 24 32 34 37 44 49 57 67 69 67 71 73 84 88 87 92 77 68 89 100 99 100 100 100 100 97 92 100 100 98 84
20 23 28 23 28 44 48 31 21 17 12 14 13 13 14 18 24 25 26 26 34 37 42 46 54 63 67 68 70 76 88 88 94 95 79 87 93 97 100 100 98 98 99 100 100 99 92 93 98
17 22 25 38 32 34 54 38 15 17 14 13 13 13 15 16 19 25 27 28 29 35 41 50 54 65 67 63 66 70 84 86 96 98 98 99 99 99 99 100 99 100 99 96 93 91 95 99 99

GFSSGP_850_rhum_075.txt.gz
RH
14 17 23 24 34 30 30 22 14 14 28 28 24 24 33 47 47 52 50 39 55 40 58 75 86 72 60 49 52 52 49 53 50 43 36 20 15 18 45 66 54 52 36 30 30 30 31 57 65
15 25 35 30 28 35 28 16 16 35 34 30 32 36 51 57 55 49 48 51 44 45 53 47 94 80 67 53 56 56 56 55 49 44 27 14 14 23 68 47 43 36 32 33 33 33 32 57 63
16 26 31 28 34 34 29 17 28 34 47 47 44 49 63 76 70 78 75 62 68 43 39 49 93 85 73 58 58 61 61 58 48 38 18 11 12 58 66 43 35 30 33 34 35 33 33 55 60
19 21 21 23 26 20 16 28 30 29 50 43 49 70 52 47 53 80 82 84 76 48 53 62 81 83 77 64 61 66 64 58 44 28 12 10 20 57 67 39 32 32 34 36 38 36 31 56 60
25 24 26 26 22 16 15 27 31 46 64 63 36 64 37 43 52 75 76 86 78 72 80 43 99 86 81 69 65 70 66 51 43 19 10 15 29 45 66 36 32 33 37 39 42 40 31 48 57
26 18 28 26 20 14 24 20 18 48 60 65 58 71 57 42 58 76 82 70 76 75 99 98 99 98 91 77 75 74 62 51 32 12 12 22 38 48 47 34 33 35 39 43 45 39 32 25 50
21 25 26 20 15 20 22 19 26 32 58 60 64 73 57 36 48 60 81 69 68 72 82 79 79 92 99 81 84 72 60 46 20 11 20 30 40 44 39 36 35 39 43 46 51 46 35 27 39
17 20 18 16 23 21 22 26 31 29 37 60 65 90 87 45 60 92 90 64 68 71 71 77 82 86 98 100 96 74 55 29 14 20 29 37 39 42 43 38 40 43 45 50 55 55 48 29 41
16 18 19 20 20 15 18 17 27 30 34 50 70 51 66 89 100 97 99 81 89 97 89 93 88 72 72 97 98 71 35 22 22 38 48 47 51 51 41 40 42 43 49 55 60 66 57 40 32
16 21 19 14 16 15 13 14 26 38 45 54 53 61 79 98 99 91 92 96 100 99 98 82 69 79 81 69 89 64 41 38 41 52 70 62 53 42 39 43 44 47 52 60 68 63 62 54 45
16 19 15 11 12 14 14 13 25 39 50 50 53 71 87 100 98 95 92 100 100 100 99 100 98 98 92 85 88 61 57 54 62 69 61 54 48 46 36 40 47 50 57 61 68 65 61 60 61
17 13 11 11 22 23 24 16 18 61 61 63 62 76 90 96 98 97 95 95 99 100 100 99 94 83 89 88 77 42 53 64 63 64 54 51 47 41 35 40 48 54 60 67 69 64 70 68 67
18 16 14 19 18 19 20 19 21 56 49 62 68 77 81 88 99 100 99 100 100 99 100 100 100 99 91 87 87 65 48 45 52 62 59 52 41 36 40 42 48 56 65 70 65 68 73 68 58
14 15 17 21 20 20 24 26 25 34 57 72 86 77 80 78 100 99 99 98 100 99 100 99 99 98 98 98 70 46 45 77 72 70 66 62 59 44 38 44 49 62 68 70 68 74 75 66 49
18 23 21 29 25 26 25 31 38 42 46 63 55 91 71 96 99 100 99 98 98 100 100 99 99 99 99 86 77 66 83 85 69 54 68 76 47 48 44 50 55 65 72 76 77 76 73 66 58
23 22 27 20 31 26 30 43 40 56 58 70 86 85 86 89 96 99 99 98 99 97 100 99 99 98 98 99 82 64 81 71 55 50 48 42 47 72 76 76 73 82 82 79 77 76 72 68 60
28 32 26 20 28 30 34 38 42 47 51 58 62 82 82 83 97 99 100 98 99 90 92 93 97 95 95 100 91 66 73 56 56 47 42 42 67 86 87 90 83 87 83 79 79 78 76 68 61
34 30 23 24 31 35 34 34 47 51 49 71 69 76 72 75 75 95 98 94 86 90 89 88 88 91 88 87 76 68 62 57 51 51 47 49 55 66 72 61 83 83 80 78 81 80 78 70 59
26 24 22 19 18 23 26 25 37 55 60 72 67 71 80 70 68 64 88 92 91 91 90 89 72 68 74 70 70 66 61 62 73 79 72 70 66 44 61 66 77 86 82 79 80 79 78 70 56
22 20 22 19 22 24 18 22 25 34 60 52 62 59 76 85 78 71 70 87 78 61 56 53 52 50 53 56 56 58 61 67 72 75 73 77 76 68 60 60 78 80 80 85 83 82 78 72 61
20 22 24 25 20 20 25 29 24 26 32 39 42 49 63 73 85 80 66 63 63 57 54 58 64 70 66 58 66 78 84 71 67 78 77 77 74 67 60 68 86 83 88 89 83 79 79 78 73
25 21 21 25 27 34 27 48 29 24 32 33 40 48 54 67 70 74 67 52 50 53 61 67 72 74 70 69 72 74 77 77 64 60 68 70 75 75 70 70 85 83 87 88 84 85 82 83 78
24 23 22 25 32 32 34 46 40 24 30 34 46 50 50 52 61 67 67 63 49 49 58 67 77 85 75 66 69 76 75 69 68 68 72 81 85 77 76 70 76 91 89 94 88 90 90 87 81
18 22 26 26 32 50 34 41 38 27 22 26 39 45 50 50 55 62 64 64 63 61 56 68 78 80 80 74 69 76 75 67 63 68 67 70 76 78 78 81 81 89 99 92 91 85 94 91 86
21 28 54 67 61 64 34 40 36 29 26 21 28 45 43 44 53 59 66 69 66 63 62 64 70 79 75 69 65 69 73 69 63 60 65 69 70 73 78 78 68 86 87 98 99 100 98 99 95
26 32 67 70 75 60 43 42 27 25 21 14 15 34 43 44 47 53 56 61 62 58 62 64 65 67 65 70 68 64 69 71 66 65 68 72 73 70 64 70 67 71 80 100 100 100 100 100 99
30 36 30 56 50 66 53 32 22 18 15 15 14 15 35 43 43 45 53 56 56 54 53 58 64 68 67 63 68 69 71 69 69 66 71 72 73 70 69 73 91 98 93 100 100 100 100 92 98
23 25 38 41 70 72 44 36 41 24 20 17 15 20 17 21 34 42 45 48 48 46 46 51 55 58 57 62 66 71 76 70 71 71 76 74 69 70 73 91 99 95 92 99 99 98 99 98 94
28 28 28 36 51 59 57 50 29 27 23 16 19 16 15 18 20 22 30 40 39 43 46 48 50 58 62 62 60 69 72 75 76 81 88 90 72 67 82 100 93 92 99 100 94 100 100 100 100
20 29 33 62 48 51 62 54 20 19 15 18 16 14 17 22 23 20 21 30 42 48 46 47 50 59 59 61 68 65 68 74 81 88 90 73 78 98 100 98 95 98 100 92 100 100 100 100 99